Погода в Сарла-ла-Канеде

Франция     44°54′37″N   1°12′43″E
темп.,
°C
ветер,
м/с
пор.,
м/с
влажн.,
%
обл.,
%
осадки,
мм/ч
давл.,
гПа
погр.,
м
2 декабря, чт
чт201:00+4ююз129994 0.7 1008139
04:00+5ююз1399100 0.6 1006184
07:00+5сз289792 2.9 1007829
10:00+5сз389470 0.3 1010346
13:00+5ссз498972 0.3 1012834
16:00+5сз4877100 0.0 1013971
19:00+4зсз4882100 0.1 1015706
22:00+3ссз3786100 0.1 10171016
3 декабря, пт
пт301:00+2с4679100 0.1 1018781
04:00+1ссз237953 0.0 1020139
07:00−1з1194100 0.0 102115
10:00+1юз1183100 0.0 1022191
13:00+5юз2463100 0.0 1020684
16:00+3ю2783100 0.2 1019342
19:00+4ю31196100 3.2 1017566
22:00+8юз31398100 3.4 1015653
4 декабря, сб
сб401:00+10зюз51393100 4.6 10141162
04:00+10юз61590100 0.3 10111045
07:00+9юз71894100 2.9 10091159
10:00+11з61288100 2.3 10111026
13:00+10зсз71682100 3.6 10131622
16:00+7зсз6148016 0.4 10151510
19:00+5з41184100 0.5 1017751
22:00+5зюз41091100 0.9 1015988
5 декабря, вс
вс501:00+5зсз41091100 1.9 10141080
04:00+5з41087100 0.6 1013700
07:00+3зсз39930 0.7 1014371
10:00+3зсз288966 0.0 1014330
13:00+6зсз3775100 0.3 1013752
16:00+5сз378014 1.0 1013646
19:00+2сз21095100 1.2 1016273
22:00+4зсз3994100 0.4 1016937
6 декабря, пн
пн601:00+4сз41093100 1.3 10171092
04:00+4с389476 0.7 1019706
07:00+3с3108996 0.7 1022528
10:00+4ссз39865 0.0 1024692
13:00+6с477067 0.0 10251078
16:00+5ссз466856 0.0 1026974
19:00+1ссз238522 0.0 102864
22:000сз119236 0.0 102910